• In Schweiz
  • Länderverzeichnis
  • Für 7 Tage
  • Wassertemperatur
  • Satellitenkarten
  • Wetterkarte
  • Widgets
  • user-avatar
    Anmelden

    Stündliche Wetter Hartford

    Heute, 21 September, Freitag

    Zeit Temperatur Niederschläge Wind Luftdruck Luftfeuchtigkeit
    00:00 +13°C° 1.2 mm 8 m/S 739 mmHg 87%
    01:00 +11°C° 0.5 mm 9 m/S 741 mmHg 86%
    02:00 +9°C° 0.5 mm 10 m/S 742 mmHg 85%
    03:00 +7°C° 0.5 mm 11 m/S 743 mmHg 84%
    04:00 +7°C° 0.3 mm 10 m/S 744 mmHg 82%
    05:00 +7°C° 0.3 mm 9 m/S 746 mmHg 80%
    06:00 +7°C° 0.3 mm 8 m/S 747 mmHg 78%
    07:00 +8°C° 0.1 mm 9 m/S 747 mmHg 75%
    08:00 +8°C° 0.1 mm 9 m/S 748 mmHg 72%
    09:00 +10°C° 0.1 mm 9 m/S 748 mmHg 69%
    10:00 +9°C° 0.7 mm 10 m/S 748 mmHg 71%
    11:00 +9°C° 0.7 mm 10 m/S 748 mmHg 73%
    12:00 +9°C° 0.7 mm 10 m/S 749 mmHg 74%
    13:00 +11°C° 0.5 mm 10 m/S 749 mmHg 74%
    14:00 +11°C° 0.5 mm 10 m/S 750 mmHg 73%
    15:00 +11°C° 0.5 mm 10 m/S 751 mmHg 73%
    16:00 +11°C° 0.3 mm 9 m/S 752 mmHg 74%
    17:00 +11°C° 0.3 mm 8 m/S 753 mmHg 75%
    18:00 +10°C° 0.3 mm 7 m/S 754 mmHg 77%
    19:00 +10°C° 0 mm 6 m/S 755 mmHg 78%
    20:00 +9°C° 0 mm 5 m/S 755 mmHg 80%
    21:00 +9°C° 0 mm 5 m/S 756 mmHg 81%
    22:00 +8°C° 0 mm 5 m/S 757 mmHg 82%
    23:00 +8°C° 0 mm 5 m/S 757 mmHg 83%

    Morgen, 22 September, Samstag

    Zeit Temperatur Niederschläge Wind Luftdruck Luftfeuchtigkeit
    00:00 +8°C° 0 mm 5 m/S 758 mmHg 83%
    01:00 +8°C° 0 mm 5 m/S 758 mmHg 83%
    02:00 +8°C° 0 mm 5 m/S 758 mmHg 82%
    03:00 +8°C° 0 mm 5 m/S 759 mmHg 82%
    04:00 +7°C° 0 mm 5 m/S 759 mmHg 82%
    05:00 +7°C° 0 mm 4 m/S 759 mmHg 83%
    06:00 +7°C° 0 mm 4 m/S 759 mmHg 83%
    07:00 +8°C° 0 mm 4 m/S 760 mmHg 79%
    08:00 +10°C° 0 mm 4 m/S 760 mmHg 75%
    09:00 +10°C° 0 mm 5 m/S 760 mmHg 71%
    10:00 +11°C° 0 mm 4 m/S 760 mmHg 68%
    11:00 +12°C° 0 mm 4 m/S 760 mmHg 65%
    12:00 +13°C° 0 mm 4 m/S 761 mmHg 62%
    13:00 +13°C° 0 mm 3 m/S 760 mmHg 62%
    14:00 +13°C° 0 mm 3 m/S 760 mmHg 63%
    15:00 +14°C° 0 mm 2 m/S 760 mmHg 63%
    16:00 +13°C° 0 mm 2 m/S 760 mmHg 66%
    17:00 +12°C° 0 mm 1 m/S 760 mmHg 70%
    18:00 +12°C° 0 mm 1 m/S 760 mmHg 73%
    19:00 +11°C° 0.3 mm 1 m/S 760 mmHg 76%
    20:00 +11°C° 0.3 mm 1 m/S 760 mmHg 79%
    21:00 +10°C° 0.3 mm 2 m/S 760 mmHg 82%
    22:00 +10°C° 0.5 mm 2 m/S 759 mmHg 84%
    23:00 +10°C° 0.5 mm 3 m/S 758 mmHg 86%

    übermorgen, 23 September, Sonntag

    Zeit Temperatur Niederschläge Wind Luftdruck Luftfeuchtigkeit
    00:00 +10°C° 0.5 mm 3 m/S 758 mmHg 88%
    01:00 +8°C° 0.6 mm 4 m/S 757 mmHg 89%
    02:00 +8°C° 0.6 mm 4 m/S 756 mmHg 89%
    03:00 +8°C° 0.6 mm 5 m/S 755 mmHg 90%
    04:00 +8°C° 1.4 mm 5 m/S 755 mmHg 90%
    05:00 +8°C° 1.4 mm 6 m/S 754 mmHg 90%
    06:00 +8°C° 1.4 mm 6 m/S 753 mmHg 91%
    07:00 +8°C° 1.2 mm 7 m/S 752 mmHg 91%
    08:00 +8°C° 1.2 mm 7 m/S 752 mmHg 91%
    09:00 +8°C° 1.2 mm 7 m/S 751 mmHg 91%
    10:00 +7°C° 3.8 mm 8 m/S 750 mmHg 91%
    11:00 +7°C° 3.8 mm 8 m/S 750 mmHg 91%
    12:00 +7°C° 3.8 mm 9 m/S 749 mmHg 91%
    13:00 +7°C° 4 mm 9 m/S 750 mmHg 90%
    14:00 +6°C° 4 mm 10 m/S 750 mmHg 89%
    15:00 +6°C° 4 mm 10 m/S 751 mmHg 88%
    16:00 +6°C° 1.2 mm 9 m/S 753 mmHg 86%
    17:00 +6°C° 1.2 mm 9 m/S 755 mmHg 85%
    18:00 +6°C° 1.2 mm 8 m/S 757 mmHg 83%
    19:00 +6°C° 0 mm 7 m/S 759 mmHg 83%
    20:00 +7°C° 0 mm 6 m/S 761 mmHg 83%
    21:00 +6°C° 0 mm 5 m/S 762 mmHg 83%
    22:00 +6°C° 0 mm 5 m/S 764 mmHg 83%
    23:00 +6°C° 0 mm 4 m/S 765 mmHg 83%

    24 September, Montag

    Zeit Temperatur Niederschläge Wind Luftdruck Luftfeuchtigkeit
    00:00 +5°C° 0 mm 4 m/S 766 mmHg 83%
    01:00 +5°C° 0 mm 3 m/S 767 mmHg 83%
    02:00 +5°C° 0 mm 3 m/S 768 mmHg 83%
    03:00 +6°C° 0 mm 2 m/S 769 mmHg 83%
    04:00 +6°C° 0 mm 2 m/S 770 mmHg 83%
    05:00 +6°C° 0 mm 2 m/S 770 mmHg 83%
    06:00 +6°C° 0 mm 2 m/S 771 mmHg 84%
    07:00 +7°C° 0 mm 2 m/S 772 mmHg 80%
    08:00 +9°C° 0 mm 3 m/S 772 mmHg 76%
    09:00 +10°C° 0 mm 3 m/S 773 mmHg 72%
    10:00 +11°C° 0 mm 3 m/S 774 mmHg 68%
    11:00 +12°C° 0 mm 3 m/S 774 mmHg 63%
    12:00 +13°C° 0 mm 3 m/S 775 mmHg 59%
    13:00 +13°C° 0 mm 3 m/S 775 mmHg 60%
    14:00 +13°C° 0 mm 3 m/S 775 mmHg 62%
    15:00 +13°C° 0 mm 3 m/S 775 mmHg 63%
    16:00 +12°C° 0 mm 3 m/S 775 mmHg 67%
    17:00 +11°C° 0 mm 3 m/S 775 mmHg 70%
    18:00 +10°C° 0 mm 2 m/S 775 mmHg 74%
    19:00 +9°C° 0 mm 2 m/S 776 mmHg 76%
    20:00 +8°C° 0 mm 2 m/S 776 mmHg 77%
    21:00 +8°C° 0 mm 1 m/S 777 mmHg 79%
    22:00 +8°C° 0 mm 1 m/S 777 mmHg 80%
    23:00 +8°C° 0 mm 1 m/S 777 mmHg 81%

    25 September, Dienstag

    Zeit Temperatur Niederschläge Wind Luftdruck Luftfeuchtigkeit
    00:00 +8°C° 0 mm 1 m/S 777 mmHg 82%
    01:00 +7°C° 0 mm 1 m/S 777 mmHg 83%
    02:00 +7°C° 0 mm 1 m/S 776 mmHg 84%
    03:00 +7°C° 0 mm 1 m/S 776 mmHg 85%
    04:00 +7°C° 0 mm 1 m/S 776 mmHg 85%
    05:00 +6°C° 0 mm 1 m/S 776 mmHg 86%
    06:00 +6°C° 0 mm 1 m/S 776 mmHg 86%
    07:00 +8°C° 0 mm 1 m/S 776 mmHg 81%
    08:00 +9°C° 0 mm 1 m/S 776 mmHg 77%
    09:00 +10°C° 0 mm 2 m/S 775 mmHg 72%
    10:00 +12°C° 0 mm 2 m/S 775 mmHg 67%
    11:00 +13°C° 0 mm 2 m/S 775 mmHg 63%
    12:00 +13°C° 0 mm 3 m/S 774 mmHg 58%
    13:00 +15°C° 0 mm 2 m/S 774 mmHg 58%
    14:00 +15°C° 0 mm 2 m/S 773 mmHg 58%
    15:00 +15°C° 0 mm 2 m/S 773 mmHg 57%
    16:00 +14°C° 0 mm 2 m/S 772 mmHg 62%
    17:00 +13°C° 0 mm 2 m/S 772 mmHg 67%
    18:00 +12°C° 0 mm 1 m/S 772 mmHg 71%
    19:00 +10°C° 0 mm 2 m/S 772 mmHg 72%
    20:00 +9°C° 0 mm 2 m/S 772 mmHg 73%
    21:00 +9°C° 0 mm 2 m/S 772 mmHg 74%
    22:00 +8°C° 0 mm 2 m/S 772 mmHg 74%
    23:00 +8°C° 0 mm 2 m/S 771 mmHg 74%

    26 September, Mittwoch

    Zeit Temperatur Niederschläge Wind Luftdruck Luftfeuchtigkeit
    00:00 +8°C° 0 mm 2 m/S 771 mmHg 74%
    01:00 +7°C° 0 mm 2 m/S 771 mmHg 74%
    02:00 +7°C° 0 mm 2 m/S 770 mmHg 73%
    03:00 +7°C° 0 mm 2 m/S 770 mmHg 73%
    04:00 +7°C° 0 mm 2 m/S 770 mmHg 75%
    05:00 +6°C° 0 mm 2 m/S 769 mmHg 77%
    06:00 +6°C° 0 mm 2 m/S 769 mmHg 79%
    07:00 +8°C° 0 mm 2 m/S 769 mmHg 78%
    08:00 +9°C° 0 mm 2 m/S 769 mmHg 76%
    09:00 +11°C° 0 mm 3 m/S 768 mmHg 74%
    10:00 +12°C° 0 mm 3 m/S 768 mmHg 71%
    11:00 +14°C° 0 mm 3 m/S 768 mmHg 68%
    12:00 +16°C° 0 mm 3 m/S 767 mmHg 64%
    13:00 +17°C° 0 mm 3 m/S 767 mmHg 64%
    14:00 +17°C° 0 mm 3 m/S 766 mmHg 63%
    15:00 +17°C° 0 mm 3 m/S 765 mmHg 63%
    16:00 +16°C° 0 mm 3 m/S 765 mmHg 68%
    17:00 +15°C° 0 mm 2 m/S 765 mmHg 73%
    18:00 +14°C° 0 mm 2 m/S 765 mmHg 79%
    19:00 +13°C° 0 mm 2 m/S 765 mmHg 81%
    20:00 +13°C° 0 mm 2 m/S 765 mmHg 82%
    21:00 +12°C° 0 mm 2 m/S 765 mmHg 84%
    22:00 +12°C° 0 mm 2 m/S 764 mmHg 86%
    23:00 +10°C° 0 mm 2 m/S 764 mmHg 88%
    Mehr zeigen